Probability
0 0 0 0 0 0 0 0 0 0 0 0 0 0 0 0 0 0 0 0 0 0 0 0 0 0 0 0 0 0 0 0 0 0 0 0 0 0 0 0 0 0 0
0 0 0 0 0 0 0 0 0 0 0 0 0 0 0 0 0 0 0 0 0 0 0 0 0 0 0 0 0 0 0 0 0 0 0 0 0 0 0 0 0 0 0
1 0 0 0 0 0 0 0 0 0 0 0 0 0 0 0 0 0 0 0 0 0 0 0 0 0 0 0 0 0 0 0 0 0 0 0 0 0 0 0 0 0 0
3 2 0 0 0 0 0 0 0 0 0 0 0 0 0 0 0 0 0 0 0 0 0 0 0 0 0 0 0 0 0 0 0 0 0 0 0 0 0 0 0 0 0
7 5 2 1 1 0 0 0 0 0 0 0 0 0 0 0 0 0 0 0 0 0 0 0 0 0 0 0 0 0 0 0 0 0 0 0 0 0 0 0 0 0 0
8 6 3 2 1 0 0 0 0 0 0 0 0 0 0 0 0 0 0 0 0 0 0 0 0 0 0 0 0 0 0 0 0 0 0 0 0 0 0 0 0 0 0
5 4 2 1 1 0 0 0 0 0 0 0 0 0 0 0 0 0 0 0 0 0 0 0 0 0 0 0 0 0 0 0 0 0 0 0 0 0 0 0 0 0 0
1 1 1 0 0 0 0 0 0 0 0 0 0 0 0 0 0 0 0 0 0 0 0 0 0 0 0 0 0 0 0 0 0 0 0 0 0 0 0 0 0 0 0
0 0 0 0 0 0 0 0 0 0 0 0 0 0 0 0 0 0 1 0 0 0 0 0 0 0 0 0 0 0 0 0 0 0 0 0 0 0 0 0 0 0 0
0 0 0 0 0 0 0 0 0 0 0 0 0 0 0 0 0 0 0 0 0 0 0 0 0 0 0 0 0 0 0 0 0 0 0 0 0 0 0 0 0 0 0
0 0 0 0 0 0 0 0 0 0 0 0 0 0 0 0 0 0 0 0 0 0 0 0 0 0 0 0 0 0 0 0 0 0 0 0 0 0 0 0 0 0 0
0 0 0 0 0 0 0 0 0 0 0 0 0 0 0 0 0 0 0 0 0 0 0 0 0 0 0 0 0 0 0 0 0 0 0 0 0 0 0 0 0 0 0
0 0 0 0 0 0 0 0 0 0 0 0 0 0 0 0 0 0 0 0 0 0 0 0 0 0 0 0 0 0 0 0 0 0 0 0 0 0 0 0 0 0 0
0 0 0 0 0 0 0 0 0 0 0 0 0 0 0 0 0 0 0 0 0 0 0 0 0 0 0 0 0 0 0 0 0 0 0 0 0 0 0 0 0 0 0
0 0 0 0 0 0 0 0 0 0 0 0 0 0 0 0 0 0 0 0 0 0 0 0 0 0 0 0 0 0 0 0 0 0 0 0 0 0 0 0 0 0 0
0 0 0 0 0 0 0 0 0 0 0 0 0 0 0 0 0 0 0 0 0 0 0 0 0 0 0 0 0 0 0 0 0 0 0 0 0 0 0 0 0 0 0
0 0 0 0 0 0 0 0 0 0 0 0 0 0 0 0 0 0 0 0 0 0 0 0 0 0 0 0 0 0 0 0 0 0 0 0 0 0 0 0 0 0 0
0 0 0 0 0 0 0 0 0 0 0 0 0 0 0 0 0 0 0 0 0 0 0 0 0 0 0 0 0 0 0 0 0 0 0 0 0 0 0 0 0 0 0
0 0 0 0 0 0 0 0 0 0 0 0 0 0 0 0 0 0 0 0 0 0 0 0 0 0 0 0 0 0 0 0 0 0 0 0 0 0 0 0 0 0 0
0 0 0 0 0 0 0 0 0 0 0 0 0 0 0 0 0 0 0 0 0 0 0 0 0 0 0 0 0 0 0 0 0 0 0 0 0 0 0 0 0 0 0
0 0 0 0 0 0 0 0 0 0 0 0 0 0 0 0 0 0 0 0 0 0 0 0 0 0 0 0 0 0 0 0 0 0 0 0 0 0 0 0 0 0 0
0 0 0 0 0 0 0 0 0 0 0 0 0 0 0 0 0 0 0 0 0 0 0 0 0 0 0 0 0 0 0 0 0 0 0 0 0 0 0 0 0 0 0
0 0 0 0 0 0 0 0 0 0 0 0 0 0 0 0 0 0 0 0 0 0 0 0 0 0 0 0 0 0 0 0 0 0 0 0 0 0 0 0 0 0 0
0 0 0 0 0 0 0 0 0 0 0 0 0 0 0 0 0 0 0 0 0 0 0 0 0 0 0 0 0 0 0 0 0 0 0 0 0 0 0 0 0 0 0
0 0 0 0 0 0 0 0 0 0 0 0 0 0 0 0 0 0 0 0 0 0 0 0 0 0 0 0 0 0 0 0 0 0 0 0 0 0 0 0 0 0 0
0 0 0 0 0 0 0 0 0 0 0 0 0 0 0 0 0 0 0 0 0 0 0 0 0 0 0 0 0 0 0 0 0 0 0 0 0 0 0 0 0 0 0
Wind_Speed
4 3 4 4 4 4 4 3 3 3 3 3 3 3 2 2 1 2 2 3 4 5 5 6 7 7 6 5 5 4 3 3 3 3 2 2 6 6 6 5 5 5 5
5 5 5 4 4 4 3 3 4 4 3 3 3 3 3 2 2 2 2 2 3 3 4 4 5 5 7 6 5 5 3 3 3 2 2 2 4 5 6 6 5 6 5
4 4 3 3 4 4 4 4 4 4 4 4 4 4 4 3 3 2 2 2 2 2 3 3 4 5 5 5 6 6 4 4 2 2 2 1 1 3 3 3 4 3 5
4 4 3 3 4 5 4 4 5 5 5 5 5 5 5 4 4 3 3 2 2 2 2 2 3 4 5 6 5 6 5 5 4 2 1 1 1 2 3 3 3 4 4
5 3 2 4 4 4 4 4 5 5 6 5 4 4 4 4 5 5 4 4 3 3 2 2 3 4 6 6 5 5 5 4 3 3 2 2 2 2 4 4 5 3 4
4 2 2 2 2 2 2 3 3 4 4 4 5 5 5 5 8 10 7 5 4 4 4 3 4 5 8 10 10 10 9 6 5 4 3 3 4 4 3 4 4 3 4
8 6 5 5 5 4 3 1 2 3 3 4 5 5 6 7 10 11 12 6 5 5 5 4 5 6 8 6 9 11 11 12 10 6 6 6 5 5 5 5 6 6 6
7 6 6 5 5 5 5 4 3 1 2 3 4 5 5 7 11 12 12 7 4 4 5 5 6 6 6 7 6 6 7 8 10 8 7 7 7 6 6 7 7 6 2
6 5 5 4 5 5 5 4 3 2 1 2 3 4 5 6 9 11 10 4 3 3 4 4 6 6 9 11 7 7 6 6 8 12 11 10 10 11 8 4 4 4 4
4 4 4 4 4 4 4 3 3 2 2 2 1 2 3 4 6 8 8 3 3 2 1 2 4 6 6 7 7 7 7 6 4 4 5 6 6 6 8 6 5 5 3
3 3 4 4 4 4 4 3 3 3 3 2 2 2 1 1 2 5 7 4 3 2 1 1 1 2 3 4 6 5 7 5 3 3 2 1 1 1 2 3 4 4 5
3 4 4 5 5 5 5 5 5 5 4 4 3 4 3 3 2 2 6 5 4 3 2 1 1 2 1 2 2 2 3 3 2 2 1 1 1 1 2 2 2 3 3
4 4 3 4 5 5 6 7 5 6 5 4 4 3 3 3 4 5 5 4 3 2 1 1 1 1 1 1 1 2 3 2 2 2 1 1 1 1 1 1 1 1 1
4 2 2 3 4 5 5 5 5 6 5 5 5 4 3 3 3 3 2 2 2 1 1 2 4 3 1 1 1 1 1 1 2 2 1 1 0 0 1 1 1 1 1
3 1 2 2 2 3 4 5 5 5 4 3 3 3 3 3 4 3 1 1 0 1 2 2 1 1 1 1 1 0 0 1 1 1 1 1 1 0 0 0 1 1 1
2 1 1 1 0 1 1 2 6 5 8 9 7 4 3 5 6 7 6 4 2 2 3 2 1 1 0 0 0 1 1 0 1 1 1 1 1 1 1 1 1 2 2
2 1 0 1 1 0 1 1 1 3 5 8 9 8 7 6 7 7 7 7 7 5 4 2 2 2 2 2 1 1 1 0 0 1 0 1 1 1 1 2 2 2 3
2 1 1 1 1 1 0 1 1 1 2 3 5 6 7 7 7 7 6 5 5 5 3 3 3 3 3 3 2 2 2 2 2 1 1 1 1 1 1 2 2 3 3
3 1 0 1 1 1 2 2 2 2 2 2 3 4 6 6 7 9 7 4 3 3 3 3 3 3 3 3 3 3 3 3 3 2 2 2 1 1 1 2 2 3 3
3 3 2 1 1 2 2 2 2 2 2 2 2 3 4 4 4 5 5 4 4 3 3 3 3 3 3 3 3 3 3 3 3 2 2 2 2 1 2 2 2 2 3
3 2 2 2 2 2 2 2 2 2 2 2 2 3 3 3 3 4 3 4 4 4 3 4 4 4 4 3 3 3 3 3 3 3 3 2 2 2 2 2 3 3 3
4 3 2 2 2 2 2 2 2 2 2 2 1 2 5 4 3 3 4 4 4 4 4 4 4 4 4 4 4 3 3 3 3 4 4 3 3 3 3 3 3 3 3
4 4 2 2 2 3 2 2 2 3 2 2 2 2 2 3 3 3 4 4 4 4 4 4 4 4 4 4 4 3 3 3 4 4 4 4 4 4 3 4 4 4 3
4 4 3 3 2 2 2 2 2 3 3 2 2 2 2 3 3 4 4 4 4 4 4 4 4 5 6 4 3 3 3 4 5 4 5 4 4 4 3 3 3 3 3
4 4 4 3 3 3 3 3 3 3 3 2 2 2 3 3 3 4 3 3 4 4 5 4 4 4 6 6 6 5 8 8 6 4 3 3 3 3 3 3 3 3 2
4 4 3 3 3 3 3 3 3 3 3 3 3 3 3 3 3 3 3 3 3 4 4 4 5 6 7 6 7 9 9 8 8 7 3 2 3 3 3 3 3 3 3
Wind_Direction
160 148 143 147 147 144 142 152 156 157 158 158 157 151 146 143 140 154 188 194 205 214 214 210 211 193 181 175 169 161 171 172 201 230 211 187 174 180 176 180 186 196 200
164 150 157 158 155 156 166 178 172 173 179 177 171 164 166 168 164 164 187 194 199 207 209 203 205 195 187 178 173 170 171 174 179 201 206 176 182 185 174 181 192 198 198
159 150 156 171 179 188 197 202 196 191 195 189 180 184 185 181 178 178 178 184 195 197 196 196 192 181 185 179 175 173 171 175 161 174 202 196 169 150 148 187 194 197 202
143 143 176 209 210 213 211 212 211 203 200 200 198 198 194 188 185 180 170 164 163 169 181 185 184 184 182 174 173 170 166 169 161 160 186 206 196 155 146 171 194 207 210
133 145 211 255 252 238 224 219 216 211 212 203 201 207 204 194 197 188 181 178 176 181 195 202 204 200 192 181 176 171 168 171 168 166 181 184 192 168 193 189 201 196 215
95 84 31 344 327 293 259 223 213 219 221 204 205 206 210 217 211 198 187 185 188 196 211 222 228 224 216 210 205 191 183 181 182 181 189 200 213 211 196 190 185 176 229
66 56 43 38 31 9 359 345 259 237 227 216 213 202 211 225 220 206 199 187 196 205 213 219 231 230 223 219 222 217 212 211 200 188 200 211 214 213 196 202 199 201 214
62 54 40 36 33 21 22 14 345 294 246 233 225 214 213 226 222 213 204 193 199 211 220 222 227 239 223 211 213 219 225 225 220 215 216 223 224 219 209 212 212 218 223
57 50 40 38 34 21 11 353 336 327 300 257 241 219 217 233 227 216 194 178 196 218 236 234 224 230 237 216 198 212 229 239 237 229 228 232 235 234 219 199 190 189 224
43 37 31 31 28 13 353 336 325 320 306 297 285 237 220 232 233 215 180 159 180 207 254 275 237 220 227 205 193 200 218 232 217 216 226 237 238 243 225 205 196 195 207
29 36 26 17 11 5 351 343 340 348 1 14 25 20 6 276 253 202 162 145 161 164 175 272 292 221 208 194 186 196 217 209 190 194 196 212 243 252 235 214 204 202 207
35 41 29 20 16 14 10 6 7 12 24 26 37 36 29 21 48 141 144 141 149 148 173 217 252 234 200 169 171 205 198 161 141 143 152 200 234 249 247 227 208 206 208
56 52 44 36 26 22 25 19 15 18 25 25 32 36 24 23 34 67 106 121 132 133 181 209 191 148 114 106 144 126 113 117 127 137 172 217 236 233 187 145 133 134 114
86 70 50 46 35 30 29 26 28 21 18 23 28 28 29 30 27 28 39 59 79 81 61 76 87 79 49 11 59 74 97 137 144 159 180 191 178 91 119 152 173 180 198
91 71 41 48 57 49 45 33 27 25 16 20 19 21 29 27 4 10 52 52 82 135 111 77 51 30 16 4 6 18 104 127 143 154 158 170 176 166 209 180 172 180 207
97 59 356 356 41 98 86 52 35 32 30 38 41 40 31 31 29 43 47 47 51 123 111 86 65 55 43 7 16 27 48 155 185 168 166 186 205 218 230 220 211 215 236
142 168 313 347 356 203 189 171 24 10 24 33 34 39 43 39 40 38 40 50 55 77 77 68 57 50 52 60 61 63 43 16 123 135 160 228 234 238 235 239 240 244 250
149 135 104 357 359 27 146 160 135 79 16 356 3 17 24 27 31 33 44 65 53 49 59 63 55 45 42 47 47 42 40 35 38 38 24 347 302 268 262 262 255 252 260
155 156 98 26 25 68 88 92 92 91 66 17 358 356 5 16 31 39 49 63 70 59 53 53 47 43 39 40 41 40 39 34 24 21 17 4 346 314 283 275 273 273 263
171 177 145 95 67 86 97 98 96 95 79 51 25 356 353 29 40 31 37 48 60 58 54 53 45 43 40 36 33 34 36 29 18 15 2 352 343 330 304 297 287 278 267
169 171 131 94 100 112 118 122 123 118 104 74 17 2 43 66 59 52 48 46 50 51 51 52 45 38 35 32 31 32 35 24 12 359 348 336 327 315 300 289 285 280 278
159 161 149 136 127 119 124 131 130 127 123 102 40 33 57 64 64 64 61 58 53 51 50 53 48 37 31 27 21 19 18 10 358 345 334 326 321 315 307 297 292 290 288
152 156 150 141 133 125 114 118 129 135 136 124 102 77 65 68 69 71 71 66 60 54 47 46 45 37 31 29 24 14 2 347 331 321 318 316 315 313 309 305 304 302 299
149 153 152 148 140 134 134 136 139 142 143 134 122 110 102 93 85 81 79 74 67 59 50 44 41 34 26 17 8 359 345 327 313 303 305 306 310 314 318 318 318 318 316
144 146 148 150 150 150 150 146 143 140 139 137 130 120 111 101 93 88 82 76 73 66 58 46 31 22 15 10 0 346 338 338 336 324 305 310 323 330 331 330 332 332 333
144 146 148 147 146 151 153 151 151 150 146 139 131 126 120 111 104 98 89 80 73 64 57 43 29 23 11 0 351 349 352 357 1 4 358 349 355 359 354 346 343 340 335